Tracking 26922 objects as of 30-Jan-2023
HD Live streaming from Space Station
objects crossing your sky now

ONEWEB-0524

Track ONEWEB-0524 now!
10-day predictions
ONEWEB-0524 is classified as:


NORAD ID: 54142
Int'l Code: 2022-138AF
Perigee: 665.8 km
Apogee: 677.7 km
Inclination: 86.9 °
Period: 98.0 minutes
Semi major axis: 7042 km
RCS: Unknown
Launch date: October 22, 2022
Source: United Kingdom (UK)
Launch site: SRIHARIKOTA (SRI)
Your satellite tracking list
Your tracking list is empty




NASA's NSSDC Master Catalog

Two Line Element Set (TLE):
1 54142U 22138AF  23030.33687361  .00001090  00000-0  18247-3 0  9992
2 54142  86.9059 180.5012 0008477 327.6814  32.3882 14.68890434 15569
Source of the keplerian elements: AFSPC